Satellite-Ground Cal/Val Region Overpasses Predictions

Prediction of Satellite NPP Overpassing Cal/Val Region: PacNW

Region Location: (Latitude: 10.00, Longitude: 139.50) to (Latitude: 22.70, Longitude: 165.60).

Table of predicted overpasses for the next 14.0 days since TLE Epoch: 8/14/2015
Interval Starting Time Starting Location Ending Time Ending Location
1 08/14/2015 14:43:20 ( 22.67, 165.01) 08/14/2015 14:46:55 ( 10.05, 162.02)
2 08/14/2015 16:24:50 ( 22.66, 139.64) 08/14/2015 16:24:59 ( 22.13, 139.51)
3 08/15/2015 03:33:54 ( 10.01, 147.19) 08/15/2015 03:37:30 ( 22.69, 144.18)
4 08/15/2015 16:05:47 ( 22.69, 144.40) 08/15/2015 16:09:23 ( 10.01, 141.40)
5 08/16/2015 03:14:51 ( 10.03, 151.94) 08/16/2015 03:18:26 ( 22.66, 148.95)
6 08/16/2015 15:46:44 ( 22.67, 149.16) 08/16/2015 15:50:19 ( 10.05, 146.16)
7 08/17/2015 02:55:49 ( 10.06, 156.69) 08/17/2015 02:59:24 ( 22.68, 153.70)
8 08/17/2015 15:27:42 ( 22.65, 153.91) 08/17/2015 15:31:17 ( 10.02, 150.92)
9 08/18/2015 02:36:45 ( 10.02, 161.46) 08/18/2015 02:40:20 ( 22.65, 158.47)
10 08/18/2015 15:08:38 ( 22.68, 158.68) 08/18/2015 15:12:13 ( 10.06, 155.68)
11 08/19/2015 02:18:29 ( 12.75, 165.59) 08/19/2015 02:21:18 ( 22.67, 163.22)
12 08/19/2015 03:59:12 ( 10.00, 140.85) 08/19/2015 04:00:51 ( 15.82, 139.50)
13 08/19/2015 14:49:36 ( 22.65, 163.43) 08/19/2015 14:53:11 ( 10.03, 160.43)
14 08/20/2015 03:40:09 ( 10.03, 145.60) 08/20/2015 03:43:44 ( 22.65, 142.61)
15 08/20/2015 14:33:38 ( 11.77, 165.59) 08/20/2015 14:34:08 ( 10.01, 165.19)
16 08/20/2015 16:12:02 ( 22.68, 142.82) 08/20/2015 16:15:37 ( 10.06, 139.82)
17 08/21/2015 03:21:07 ( 10.05, 150.36) 08/21/2015 03:24:42 ( 22.68, 147.36)
18 08/21/2015 15:53:00 ( 22.65, 147.57) 08/21/2015 15:56:35 ( 10.03, 144.58)
19 08/22/2015 03:02:04 ( 10.02, 155.12) 08/22/2015 03:05:39 ( 22.64, 152.13)
20 08/22/2015 15:33:56 ( 22.68, 152.34) 08/22/2015 15:37:32 ( 10.00, 149.33)
21 08/23/2015 02:43:01 ( 10.05, 159.87) 08/23/2015 02:46:36 ( 22.67, 156.88)
22 08/23/2015 15:14:54 ( 22.65, 157.09) 08/23/2015 15:18:29 ( 10.03, 154.10)
23 08/24/2015 02:23:58 ( 10.02, 164.64) 08/24/2015 02:27:33 ( 22.64, 161.65)
24 08/24/2015 14:55:50 ( 22.69, 161.86) 08/24/2015 14:59:26 ( 10.01, 158.85)
25 08/25/2015 03:46:25 ( 10.06, 144.02) 08/25/2015 03:50:00 ( 22.68, 141.02)
26 08/25/2015 14:37:59 ( 18.49, 165.59) 08/25/2015 14:40:23 ( 10.04, 163.61)
27 08/25/2015 16:18:18 ( 22.65, 141.23) 08/25/2015 16:20:20 ( 15.49, 139.50)
28 08/26/2015 03:27:22 ( 10.03, 148.78) 08/26/2015 03:30:57 ( 22.65, 145.79)
29 08/26/2015 15:59:14 ( 22.68, 146.00) 08/26/2015 16:02:49 ( 10.06, 143.00)
30 08/27/2015 03:08:19 ( 10.06, 153.53) 08/27/2015 03:11:54 ( 22.68, 150.54)
31 08/27/2015 15:40:12 ( 22.65, 150.75) 08/27/2015 15:43:47 ( 10.03, 147.76)


NCC Satellite Cal/Val Overpasses Prediction Service
